Content
SEND FEEDBACK

Daily
Averages
Monthly
Summary
United States of America

TULSA - AIRPORT, OKLAHOMA


Home > North America > United States > Oklahoma
Elevation: 680 feet     Latitude: 36 12N     Longitude: 095 54W

WEATHER
 
SELECT A DAY
Number of Records: 195,888;   Date Range: 1/1/95 - 10/29/14
 
SHARE

PRINT THIS DATA

[ ← Previous Day ]
WEATHER ALMANAC - FEBRUARY 1, 2013
[ Next Day → ]
[ °C ]   °F
Weather ElementAverageHighLow
Temperature29.3 °F43 °F (3:53 pm)17.1 °F (5:53 am)
Dewpoint11.8 °F21 °F (11:53 pm)3 °F (4:53 am)
Humidity49.5 %64 % (11:53 pm)33 % (12:53 pm)
Barometer30.36 in30.51 in (8:53 am)30.19 in (5:53 pm)
Wind Speed6.6 mph13.8 mph (3:53 pm)
Wind Gust19.6 mph (2:53 pm)
Weather ElementAverage
Visibility10 mi
Wind DirectionESE (115.7 °)

Weather ElementTotal
Precipitation---
Heating Degree Days35 (Base 65)
Averaged from 23 records on February 1, 2013
WEATHER CONDITIONS BREAKOUT
WIND DIRECTION BREAKOUT
WEATHER BY HOUR - FEBRUARY 1, 2013
[ °C ]   °F
Local TimeTemperatureDewpointHumidityBarometerVisibilityWind DirectionWind SpeedGust SpeedPrecipitationEventsConditions
1:53 AM19.9 °F8.1 °F60 %30.48 in10.0 miNE (50°)8.1 mphClear
2:53 AM19.0 °F3.9 °F52 %30.50 in10.0 miNE (40°)6.9 mphClear
3:53 AM19.0 °F3.9 °F52 %30.50 in10.0 miNE (40°)5.8 mphClear
4:53 AM18.0 °F3.0 °F52 %30.48 in10.0 miENE (70°)4.6 mphClear
5:53 AM17.1 °F3.9 °F56 %30.49 in10.0 miEast (90°)3.5 mphClear
6:53 AM17.1 °F5.0 °F59 %30.49 in10.0 miEast (80°)4.6 mphClear
7:53 AM18.0 °F7.0 °F62 %30.50 in10.0 miENE (70°)3.5 mphClear
8:53 AM21.0 °F8.1 °F57 %30.51 in10.0 miESE (110°)4.6 mphClear
9:53 AM25.0 °F9.0 °F51 %30.49 in10.0 miSE (130°)6.9 mphPartly Cloudy
10:53 AM28.0 °F8.1 °F43 %30.48 in10.0 miESE (120°)6.9 mphPartly Cloudy
11:53 AM34.0 °F8.1 °F34 %30.44 in10.0 miSE (140°)9.2 mphPartly Cloudy
12:53 PM35.6 °F8.6 °F33 %30.37 in10.0 miSouth (180°)8.1 mphPartly Cloudy
1:53 PM39.2 °F12.2 °F33 %30.32 in10.0 miSE (140°)11.5 mph17.3 mphPartly Cloudy
2:53 PM41.0 °F15.1 °F35 %30.28 in10.0 miSouth (170°)12.7 mph19.6 mphPartly Cloudy
3:53 PM43.0 °F16.0 °F34 %30.25 in10.0 miSSE (160°)13.8 mphPartly Cloudy
4:53 PM43.0 °F17.1 °F35 %30.22 in10.0 miSE (140°)12.7 mphClear
5:53 PM39.9 °F18.0 °F41 %30.19 in10.0 miSE (140°)9.2 mph19.6 mphClear
6:53 PM37.0 °F18.0 °F46 %30.21 in10.0 miCalmClear
7:53 PM30.9 °F19.0 °F61 %30.22 in10.0 miNorth (350°)4.6 mphClear
8:53 PM30.9 °F19.0 °F61 %30.24 in10.0 miEast (90°)3.5 mphClear
9:53 PM34.0 °F19.9 °F56 %30.25 in10.0 miCalmClear
10:53 PM32.0 °F19.9 °F61 %30.24 in10.0 miSSE (160°)3.5 mphClear
11:53 PM32.0 °F21.0 °F64 %30.22 in10.0 miSouth (190°)8.1 mphClear
Hourly data recorded from KTUL, located miles away from Tulsa - Airport, Oklahoma







STORIES FROM OUR PARTNERS